GEFSMW_500_meanwind_120.txt.gz
Wind_Speed
16 15 13 12 9 9 12 16 19 20 21 20 21 20 18 18 16 15 13 11 11 10 9 8 7 6 5 4 3 2 2 2 1 1 1 0 1 1 1 2 2 2 3
15 14 12 11 9 9 12 15 18 19 21 20 21 20 18 19 18 16 15 13 12 11 10 9 8 7 5 4 4 3 2 2 1 1 1 1 1 2 3 3 3 3 3
14 13 12 10 8 8 11 15 16 18 20 21 22 21 19 20 18 16 16 14 13 13 11 10 9 7 6 5 4 3 3 2 2 1 2 2 2 2 3 3 3 3 4
13 12 11 9 7 7 9 12 16 17 19 21 21 20 20 20 20 18 16 16 15 14 12 11 10 8 7 5 5 4 3 3 2 2 3 3 3 3 4 4 5 5 5
12 11 10 7 6 6 8 10 15 18 21 21 21 21 20 20 20 19 18 17 16 14 13 12 11 9 8 7 6 5 5 4 4 3 4 4 5 5 5 6 6 7 7
11 10 9 8 6 5 6 9 14 17 18 20 21 21 20 19 20 19 19 18 16 15 14 13 11 10 8 8 7 6 6 5 5 5 5 5 6 7 7 7 8 8 9
10 9 8 7 5 5 6 9 13 15 17 18 19 19 19 19 19 19 19 19 17 16 15 14 12 10 9 9 8 8 8 8 8 8 7 8 8 9 9 9 10 10 10
10 8 7 6 4 4 6 8 12 15 17 18 19 20 19 19 18 19 19 18 17 16 15 14 13 12 11 10 10 10 10 11 11 11 11 11 11 11 12 12 12 13 13
10 8 6 5 3 3 6 8 10 13 15 16 17 18 17 18 18 18 18 17 17 17 16 16 15 14 13 13 13 13 13 14 13 13 14 14 14 14 14 15 15 16 16
9 8 6 5 4 4 5 8 10 12 14 15 16 17 18 19 19 19 19 18 18 18 18 18 17 16 16 16 16 16 16 16 16 16 17 17 18 18 18 18 18 19 19
8 8 6 4 4 4 5 8 11 13 13 14 14 17 18 19 20 20 19 19 19 19 20 20 19 19 19 19 19 19 19 20 20 20 20 20 21 21 22 21 21 22 22
9 9 8 6 5 6 6 7 11 13 13 13 13 15 18 19 20 20 20 20 20 20 20 21 21 21 21 21 21 22 22 23 23 23 23 24 24 24 24 24 24 24 24
11 10 9 8 7 7 7 7 9 12 14 14 14 15 17 19 19 20 21 21 21 21 21 22 21 22 22 22 23 24 25 26 26 26 26 27 27 27 27 27 27 27 28
11 11 11 10 9 8 8 9 9 11 13 14 15 15 16 17 18 19 21 22 22 22 23 23 23 23 24 24 25 26 27 28 28 29 29 29 30 30 30 30 30 30 31
12 12 11 11 10 9 9 10 10 12 12 13 14 15 16 16 17 18 20 22 23 23 24 24 25 26 26 27 28 29 30 30 30 31 32 32 33 32 33 33 33 34 34
12 12 12 12 11 11 11 11 11 12 13 14 15 16 17 18 19 20 21 22 23 24 26 27 27 28 29 30 30 30 31 32 33 33 34 35 36 36 37 37 36 36 36
14 14 14 13 13 13 13 14 13 14 15 15 16 17 18 18 20 21 22 23 25 26 27 28 29 31 32 33 33 34 35 35 35 35 36 37 38 39 38 38 38 37 38
16 15 15 15 15 14 14 15 17 17 18 18 18 18 19 20 21 22 23 25 27 28 30 31 32 32 34 35 37 38 38 37 37 38 39 39 40 41 41 40 40 41 41
18 18 18 17 17 17 16 16 17 19 20 21 21 21 21 22 23 25 26 27 29 30 31 32 33 34 34 35 37 38 38 39 39 39 40 41 41 42 42 43 42 43 43
20 19 19 19 19 19 19 19 19 20 21 22 22 23 24 25 26 27 29 30 30 32 32 31 33 34 35 37 38 39 40 41 41 42 42 43 43 44 45 45 45 45 46
21 21 21 20 20 20 21 21 21 21 22 23 24 24 26 27 28 29 30 30 31 32 33 34 35 36 37 38 39 40 41 41 42 43 44 44 45 46 46 46 46 47 48
22 22 22 22 22 22 22 22 22 23 24 24 26 26 27 28 29 30 31 32 32 34 36 36 38 39 39 40 41 42 42 42 44 44 45 46 46 46 46 47 47 48 50
23 22 23 22 22 23 23 23 24 24 25 26 28 29 30 30 31 32 33 34 35 36 37 37 39 40 41 40 41 41 42 43 44 45 45 46 47 48 49 49 50 51 52
24 23 23 23 24 24 24 25 26 26 27 28 28 29 30 31 32 32 33 34 35 36 37 38 39 40 41 41 41 42 44 45 46 47 48 49 50 51 51 52 53 53 53
24 24 24 24 23 24 25 26 27 28 29 29 29 29 30 31 32 32 33 35 36 37 37 38 39 40 41 41 42 44 46 47 48 49 50 51 51 52 53 54 54 55 55
24 24 24 24 24 25 26 27 27 28 29 30 30 31 32 32 33 34 35 36 37 38 39 40 41 42 42 43 44 45 46 48 49 50 51 52 53 54 55 56 56 56 57

GEFSMW_500_meanwind_126.txt.gz
Wind_Speed
15 15 15 13 12 12 13 14 16 18 21 23 24 24 23 22 21 20 18 16 14 13 12 11 10 9 8 6 5 4 3 2 2 2 2 2 2 2 3 3 3 3 3
14 14 14 13 11 10 11 12 15 18 20 22 23 22 23 24 22 20 18 17 16 14 13 12 11 10 8 7 6 5 4 3 3 2 2 2 2 2 3 3 3 3 3
12 12 12 11 10 10 11 11 12 16 20 21 22 23 22 23 22 19 18 17 16 15 14 13 12 11 9 8 7 6 5 5 4 3 3 3 2 3 3 3 3 4 4
11 12 11 11 11 10 10 10 11 14 18 20 21 22 23 22 22 21 20 18 17 16 15 14 13 12 11 9 8 7 6 5 5 4 3 3 3 3 4 4 4 5 6
11 12 11 11 10 10 9 10 12 13 16 19 20 23 23 22 22 21 20 19 18 18 16 15 14 13 12 10 9 7 6 5 5 4 4 4 4 5 5 5 6 6 6
11 12 11 11 9 8 7 8 11 14 17 19 19 22 22 22 22 21 20 20 20 19 18 17 15 14 13 11 10 9 8 7 6 6 6 6 6 6 7 7 7 8 8
11 11 11 10 9 7 6 6 9 13 17 19 20 21 22 22 22 21 21 21 20 19 18 17 17 15 14 12 11 10 9 8 8 8 8 8 9 9 9 10 10 10 11
10 10 10 9 8 7 5 5 8 11 15 18 20 22 22 22 22 21 20 20 20 20 20 19 17 16 15 13 12 11 11 10 10 10 11 11 11 12 12 13 13 13 14
9 8 8 8 7 7 6 4 7 11 14 15 17 19 21 21 21 20 20 20 20 20 20 20 18 17 16 14 14 14 13 13 13 13 13 14 14 14 15 16 16 17 17
9 7 6 7 7 7 6 5 5 10 14 15 17 18 20 21 21 20 21 20 20 20 19 20 19 18 17 16 16 16 16 16 15 16 16 17 17 18 18 19 20 20 20
7 6 6 6 7 6 5 4 5 8 11 14 17 18 18 18 18 18 19 19 20 19 19 19 19 19 18 18 18 18 19 19 19 19 20 20 21 21 21 22 23 24 24
7 6 6 6 7 6 4 4 4 7 9 12 15 16 16 17 17 17 18 19 19 20 20 20 20 20 20 21 21 21 22 22 22 23 23 23 24 25 25 25 26 27 27
8 7 6 6 6 5 4 4 5 7 9 12 14 15 16 16 17 18 18 20 20 21 21 22 22 22 22 22 23 24 25 25 25 26 26 26 27 27 27 28 29 29 30
9 9 8 7 6 5 5 5 6 8 9 11 13 14 16 17 18 19 19 20 20 21 22 23 23 23 23 24 25 26 26 27 28 29 29 29 30 31 31 31 31 32 32
11 10 9 9 8 7 6 7 7 8 9 10 12 14 16 17 18 19 20 20 21 21 22 23 24 25 25 26 27 28 29 30 31 31 32 32 32 33 34 34 34 35 35
13 12 11 11 10 9 9 9 8 8 10 11 12 14 15 17 18 19 20 20 21 22 22 24 25 26 27 27 29 30 31 33 33 34 35 36 35 36 36 37 38 39 39
15 14 14 13 12 11 11 11 11 11 11 12 13 14 15 16 18 19 20 21 22 23 24 25 27 28 29 31 32 33 34 35 35 36 37 38 39 40 40 41 42 42 43
17 16 15 14 13 13 13 13 13 13 13 13 14 15 16 17 18 20 21 22 23 25 27 28 30 31 32 34 35 36 36 37 38 39 40 40 41 41 43 44 44 44 44
19 18 17 16 15 14 15 15 15 16 16 16 16 17 18 19 21 21 23 24 25 27 28 29 30 32 32 33 34 36 36 37 39 39 41 42 42 42 43 45 45 45 45
20 20 19 19 18 18 18 18 18 17 17 17 18 19 20 22 24 24 25 26 28 29 30 31 32 33 34 35 37 38 39 39 39 40 41 42 42 43 45 45 45 45 46
22 21 21 20 20 20 20 20 20 20 20 20 19 20 21 22 23 25 26 27 29 30 32 33 34 35 36 36 38 39 40 41 42 42 42 43 43 44 45 46 46 46 47
24 23 22 22 22 22 22 22 22 22 22 22 22 22 23 24 25 26 27 28 29 31 32 34 35 37 38 39 39 40 42 43 44 44 44 44 45 45 46 47 48 48 49
25 25 25 25 24 24 24 24 24 25 25 24 24 24 25 26 27 27 29 30 30 32 33 34 36 37 38 40 41 42 43 44 45 45 45 46 47 47 47 48 49 50 51
27 27 27 26 26 26 26 26 25 24 24 24 25 26 27 27 28 29 30 31 32 33 34 36 37 38 39 40 41 42 43 44 45 46 47 47 47 48 49 50 51 52 53
29 29 28 27 27 27 27 27 27 26 27 28 28 29 29 30 30 31 32 33 33 34 35 36 37 39 40 41 42 43 44 45 46 47 48 48 49 49 50 50 51 52 52
29 28 29 29 29 29 29 29 28 28 28 29 30 30 31 31 31 32 32 33 34 34 36 37 39 40 41 43 44 45 46 47 47 48 49 50 50 50 51 52 53 53 53

GEFSMW_500_meanwind_132.txt.gz
Wind_Speed
17 17 17 17 17 16 15 15 14 15 17 18 19 20 20 20 20 19 18 18 17 16 14 12 12 10 9 8 7 5 4 2 1 0 1 1 1 1 1 2 2 2 3
17 17 16 17 17 15 14 15 14 15 16 16 17 19 21 21 20 19 18 17 17 16 15 13 12 11 10 9 8 6 5 3 2 1 1 2 2 1 1 2 3 3 3
16 16 15 15 15 14 14 14 14 15 15 15 16 18 20 20 19 18 17 18 17 17 16 14 13 12 11 10 8 7 5 4 3 2 2 2 2 2 2 2 3 3 3
15 15 14 14 14 13 13 13 13 13 14 14 15 17 19 19 19 18 18 19 18 17 17 15 15 13 12 11 10 8 6 5 4 3 3 3 3 3 3 3 3 4 4
15 15 15 14 14 12 11 11 11 11 13 14 14 16 18 19 20 19 19 19 18 18 17 16 16 15 14 12 11 10 8 7 6 5 4 4 4 4 4 3 4 5 5
16 14 14 14 13 12 11 11 10 10 12 14 15 15 16 18 19 19 19 19 18 17 17 17 16 16 15 14 13 11 9 8 7 6 6 5 5 6 6 6 7 7 8
15 14 14 13 12 12 11 10 9 9 10 13 14 15 17 18 19 19 19 19 19 17 17 17 17 17 16 15 14 13 11 10 9 8 8 8 8 8 9 9 9 10 10
14 14 14 13 12 11 10 8 8 8 8 10 13 15 16 17 18 19 19 18 18 18 18 17 17 18 17 16 15 14 13 12 11 10 10 10 10 11 11 12 12 13 13
13 14 13 12 10 9 9 8 8 8 8 10 12 14 15 16 18 18 19 19 18 17 16 17 17 17 17 16 16 15 14 14 13 13 13 13 13 13 14 14 15 16 16
14 13 12 11 10 9 8 8 8 7 7 9 12 14 15 15 16 17 17 19 19 18 17 18 18 18 17 18 17 16 16 15 15 15 16 16 16 16 17 18 18 19 20
13 12 11 10 9 8 8 8 7 6 7 8 10 11 13 15 16 16 18 19 19 18 18 19 18 18 18 18 18 18 18 17 17 18 18 18 19 20 21 21 22 22 23
12 11 11 10 8 8 7 7 6 5 5 7 9 10 11 13 13 15 16 18 19 19 19 19 18 18 17 18 19 19 19 19 20 20 21 22 22 23 24 24 24 25 26
13 11 10 10 8 8 7 7 6 4 4 5 7 8 10 11 12 13 14 15 16 17 17 17 17 17 18 19 20 20 21 22 22 23 24 25 26 26 27 27 27 28 28
13 12 11 10 9 8 8 7 6 5 4 6 7 7 9 11 12 13 14 15 16 16 17 17 18 19 20 21 21 22 23 23 24 25 26 27 28 29 29 29 30 31 31
15 14 13 11 10 9 8 7 7 6 6 6 7 7 9 10 11 12 14 15 17 18 19 20 20 21 21 22 23 24 25 26 27 27 28 29 30 30 32 32 33 34 35
17 16 14 13 12 10 9 9 8 7 7 7 8 9 9 11 12 13 14 16 17 18 19 20 21 21 23 24 25 26 27 28 29 29 30 31 31 32 33 34 36 37 38
19 17 16 15 14 12 11 10 10 9 8 8 8 9 10 11 13 14 15 16 17 18 19 21 22 23 24 26 27 28 29 29 30 31 32 33 34 35 36 37 38 38 39
21 20 19 17 16 15 13 13 12 12 11 11 11 11 12 13 13 15 17 18 20 21 21 23 24 25 25 25 26 28 29 30 31 32 33 35 36 37 38 38 38 39 40
23 21 20 19 18 17 16 15 15 14 14 13 13 13 14 15 16 16 16 17 18 20 21 22 23 24 25 26 28 29 30 31 32 33 35 36 37 38 39 40 40 41 41
25 24 22 21 20 19 18 17 17 16 16 16 16 15 15 16 17 18 18 19 19 20 21 23 24 25 26 27 29 31 31 33 34 35 37 38 39 41 42 42 42 43 43
26 25 24 23 22 21 20 19 19 19 18 18 19 19 19 18 19 20 20 21 21 22 24 25 26 26 28 29 31 32 33 34 36 36 38 39 39 40 41 42 43 44 45
27 27 26 25 23 22 21 21 20 20 20 20 21 21 21 21 21 22 23 23 24 25 26 27 27 28 29 31 32 33 34 36 37 38 38 39 40 41 41 43 44 45 46
28 28 28 26 25 25 24 23 23 22 22 22 23 23 24 24 24 25 25 24 24 25 26 28 30 30 31 32 33 35 36 37 38 39 40 41 42 43 44 45 47 48 49
29 28 28 27 27 26 26 26 25 25 25 25 25 25 26 26 25 25 26 26 27 28 29 30 31 32 33 34 35 36 38 38 39 41 42 43 44 46 47 48 50 51 51
28 28 28 28 28 28 28 27 28 27 27 27 28 28 28 29 28 29 30 30 30 30 31 31 32 34 35 36 37 38 39 40 42 43 44 46 47 49 50 51 53 53 54
28 28 28 29 30 30 30 30 30 29 29 29 29 29 30 30 30 30 31 31 32 32 33 34 35 35 36 36 38 39 40 42 44 46 47 49 51 52 53 53 54 55 55

GEFSMW_500_meanwind_138.txt.gz
Wind_Speed
13 12 12 12 13 12 11 12 12 12 12 11 12 14 14 15 16 16 15 14 15 16 15 15 13 13 12 10 9 8 7 6 5 4 4 4 4 3 3 2 1 2 2
15 12 11 13 13 12 12 11 11 12 12 12 13 13 14 14 15 16 16 16 16 16 16 16 15 13 12 11 10 10 9 7 6 5 4 4 4 3 3 2 2 2 2
14 13 12 12 11 12 11 10 10 10 11 12 14 14 14 14 15 16 17 17 17 17 16 16 15 14 14 13 12 11 10 9 7 6 5 5 4 4 3 2 2 2 1
14 13 12 11 11 11 10 10 10 9 10 11 13 15 15 15 16 18 19 18 18 18 16 16 16 16 15 14 13 13 12 10 9 7 6 5 4 4 3 3 2 2 2
13 13 12 11 10 10 9 9 10 10 10 11 12 14 14 15 17 19 19 19 19 18 17 17 17 17 17 16 15 14 13 11 10 8 7 6 6 5 5 4 3 3 3
11 11 10 10 8 8 8 8 9 10 10 10 11 13 14 15 17 19 20 19 19 19 18 18 18 19 18 17 16 15 14 12 11 10 9 8 7 7 6 6 5 5 4
8 8 8 9 8 8 8 7 8 9 9 10 10 12 13 14 16 18 20 19 19 20 20 19 18 19 19 18 18 17 16 14 13 12 11 10 9 8 8 7 6 6 6
7 7 8 9 8 8 8 7 7 7 8 9 10 12 13 14 16 18 18 19 19 20 20 19 19 20 20 19 18 17 17 16 15 14 13 12 11 10 10 9 9 8 9
7 7 7 7 8 8 8 7 7 7 8 8 10 12 14 15 16 17 18 19 19 19 20 20 20 19 19 19 19 19 18 18 17 16 15 13 13 12 12 12 11 11 12
6 6 7 7 7 7 8 7 6 7 7 8 10 12 14 15 15 17 18 19 19 20 20 20 20 19 19 19 19 18 18 19 18 18 17 16 15 15 15 15 15 15 15
6 6 6 6 6 7 7 7 7 7 7 6 7 11 14 16 16 16 17 19 20 20 19 20 21 21 20 19 19 19 20 20 19 19 19 18 18 17 18 18 18 19 19
5 5 6 6 6 6 6 6 7 7 6 5 5 9 13 14 15 16 16 17 20 20 20 21 21 21 21 21 20 20 20 20 20 20 19 20 20 20 20 21 21 22 22
6 5 5 6 6 7 6 6 7 7 6 5 6 8 10 13 15 15 16 16 17 19 21 21 22 22 22 21 21 21 20 21 21 21 21 22 22 23 23 24 24 24 25
6 5 6 6 7 8 7 7 7 7 7 5 6 8 9 11 13 14 15 16 17 19 20 21 22 22 23 22 22 22 22 22 22 23 24 24 24 25 25 26 27 27 27
8 7 8 8 8 8 8 8 7 7 6 6 5 8 10 11 12 13 13 14 15 16 18 19 20 21 21 21 21 22 23 23 23 24 25 26 26 27 27 28 29 30 30
11 10 10 10 10 10 10 9 7 7 7 6 7 7 9 10 10 11 13 15 16 16 17 18 19 20 21 22 23 24 25 25 25 26 27 27 29 30 30 31 31 32 32
14 13 12 12 12 12 12 10 9 8 8 8 7 7 8 11 12 12 12 14 16 17 18 19 20 20 22 23 24 24 24 25 26 27 28 30 31 32 32 32 33 33 34
16 15 14 14 14 13 13 13 11 10 10 10 10 9 8 10 12 13 14 14 15 16 18 19 20 21 22 23 24 26 26 26 27 28 29 30 30 31 31 32 33 34 35
19 18 17 16 16 15 14 14 14 13 12 13 12 12 12 11 12 13 15 16 16 17 18 19 20 21 22 23 25 26 26 27 27 28 29 30 31 32 33 34 35 35 36
21 20 19 19 18 17 16 16 16 15 14 14 14 14 14 14 15 15 15 16 17 17 18 19 20 20 22 23 24 25 27 28 28 28 29 30 32 33 34 35 37 38 39
22 22 22 21 20 19 19 18 17 15 16 16 16 16 16 16 17 17 17 17 18 19 20 20 21 22 24 25 25 26 27 28 29 30 31 32 33 35 36 37 38 38 40
23 23 22 22 21 21 21 20 19 18 17 17 17 17 17 18 18 18 19 19 20 20 21 23 23 23 24 26 27 28 29 31 32 33 34 35 36 37 38 39 39 40 41
23 23 23 24 23 22 22 22 21 20 20 19 19 18 18 19 19 19 20 21 21 21 22 23 24 25 26 27 28 30 31 32 33 34 35 36 37 38 39 40 41 42 43
24 24 24 24 24 23 23 23 23 22 21 20 20 19 20 21 22 22 23 23 23 23 24 25 26 27 28 29 30 31 32 34 35 35 36 37 38 39 41 42 44 45 47
23 23 23 23 23 23 23 24 23 23 23 22 22 22 22 23 24 23 23 23 24 25 26 26 28 29 30 31 33 33 34 35 36 37 38 39 40 42 44 45 47 48 50
23 23 22 22 22 22 23 23 23 22 23 23 23 24 24 23 24 24 25 26 27 27 27 28 29 30 31 32 33 33 34 35 36 38 40 41 43 45 46 47 49 51 52

GEFSMW_500_meanwind_144.txt.gz
Wind_Speed
14 14 15 15 15 16 16 13 13 13 13 15 15 16 16 16 16 16 16 17 16 14 12 13 13 14 12 11 10 9 8 7 6 5 4 4 4 4 4 3 3 3 2
15 16 17 16 16 16 17 15 14 15 14 14 15 15 17 18 17 16 16 16 15 15 13 13 14 15 14 12 11 10 9 8 7 6 6 5 5 5 5 5 4 3 3
15 16 17 17 18 17 17 16 14 14 14 14 14 13 14 16 16 17 16 17 17 17 16 15 15 16 15 14 13 12 11 10 9 8 7 7 6 5 5 5 5 4 4
15 17 17 18 18 16 16 14 12 13 13 13 13 13 14 16 17 17 18 18 18 17 17 17 17 17 16 15 14 13 13 12 11 10 9 8 8 7 7 6 6 5 5
16 17 17 18 18 17 14 12 10 11 12 12 13 14 15 16 17 18 18 19 19 19 18 19 18 18 17 16 16 15 14 14 13 12 11 10 9 9 8 8 7 7 7
16 16 17 17 17 15 12 10 9 9 11 12 12 13 14 16 17 18 19 19 21 21 20 19 19 19 18 17 17 17 16 16 15 14 13 12 11 10 10 10 9 9 9
14 14 16 17 16 13 11 9 8 8 9 10 11 12 12 14 16 17 18 19 20 21 21 21 20 20 19 18 18 17 18 17 16 15 15 14 13 13 12 12 11 11 11
12 13 14 15 14 12 10 9 7 7 7 8 9 10 12 13 15 17 17 18 19 21 21 21 21 21 20 19 19 19 19 19 18 17 16 16 15 15 15 14 14 14 14
13 13 14 12 11 10 8 8 7 6 6 7 9 10 12 13 14 16 17 17 19 21 21 21 21 21 22 22 21 21 21 21 20 19 18 18 17 17 17 17 16 16 16
11 10 11 10 10 9 8 7 6 6 6 7 8 9 11 12 14 16 16 17 19 21 21 22 22 22 23 23 23 23 23 23 22 21 21 20 19 19 19 19 18 18 19
11 11 11 9 9 8 7 6 6 6 6 7 7 9 10 11 13 15 16 17 18 19 20 21 22 23 23 23 23 23 23 23 22 22 22 22 22 22 21 21 20 20 21
9 10 9 8 8 7 7 7 6 7 7 7 7 8 10 11 13 14 15 16 17 19 19 20 22 23 23 23 23 23 23 24 23 23 23 23 24 24 23 23 23 23 23
8 8 9 8 8 7 7 6 7 6 6 7 7 8 9 10 13 14 16 16 17 18 18 18 20 21 23 23 23 23 24 24 25 24 24 25 25 25 26 26 25 26 27
8 8 8 8 8 7 7 7 7 7 7 7 7 7 8 9 11 14 16 16 16 17 17 17 19 21 22 24 25 25 25 24 25 25 26 26 26 26 27 27 27 28 29
9 9 9 9 9 8 8 8 7 7 7 7 7 8 8 9 10 13 15 16 17 17 18 18 19 20 22 24 24 24 24 24 24 25 25 25 26 27 27 28 29 30 31
11 11 11 11 11 11 10 9 8 9 9 8 8 8 8 9 10 11 14 14 15 17 18 18 19 20 21 23 23 25 26 26 27 27 26 26 28 29 29 29 31 32 33
12 13 13 14 13 13 12 11 10 10 10 9 9 9 9 9 10 11 13 14 15 17 17 18 19 20 21 21 22 23 24 25 26 26 27 28 29 30 32 32 33 33 34
14 15 15 16 15 15 14 13 12 12 11 11 10 10 10 10 11 12 13 14 16 17 18 18 19 20 21 22 22 23 24 26 27 28 28 29 31 32 33 34 34 34 35
17 17 16 16 17 17 16 15 14 13 13 13 13 12 12 11 12 13 13 14 16 17 18 18 19 20 21 22 23 25 26 27 28 29 31 31 32 33 34 35 35 36 37
19 19 18 17 18 18 18 18 16 15 15 14 15 14 13 13 13 13 13 14 16 17 17 18 19 21 22 23 24 25 27 28 29 30 31 32 33 34 35 36 38 38 40
20 20 20 19 18 18 18 18 18 17 17 16 16 16 15 15 15 15 15 16 17 18 18 18 19 20 22 23 25 26 28 29 30 30 32 33 34 35 36 37 39 41 42
21 21 20 20 20 20 20 20 19 18 18 18 17 17 17 17 18 18 18 18 18 19 18 18 20 21 22 24 25 26 28 29 31 32 34 35 37 38 39 40 41 42 43
22 22 21 21 21 21 21 21 20 21 20 20 19 19 19 19 19 19 19 19 18 19 20 20 21 23 24 25 26 27 28 29 31 33 35 37 38 40 40 41 42 44 45
23 23 22 22 23 23 23 22 22 22 22 22 21 21 21 20 20 19 20 21 21 21 22 22 23 23 25 27 28 29 29 31 33 35 37 37 38 40 42 43 44 45 46
22 22 23 23 23 23 23 23 23 22 22 22 22 22 21 21 21 21 21 21 22 23 24 24 25 26 28 29 30 31 32 33 35 36 38 39 40 42 43 45 46 47 48
22 22 22 22 22 21 22 23 23 23 23 22 22 22 22 23 23 22 23 23 24 24 25 27 28 28 29 30 31 32 34 35 37 38 39 41 42 43 44 46 47 48 50

GEFSMW_500_meanwind_150.txt.gz
Wind_Speed
12 13 13 13 14 14 14 14 13 13 13 15 16 16 16 15 16 17 17 18 18 17 15 15 15 15 14 12 12 10 10 9 8 6 5 5 5 5 4 4 4 3 4
13 13 13 14 15 15 15 16 15 13 13 14 16 17 18 17 17 16 17 18 18 18 16 15 15 15 15 14 12 12 11 10 9 8 7 6 6 5 5 5 5 5 4
14 14 14 15 15 15 16 16 15 13 13 14 16 17 18 19 18 18 18 18 20 20 18 17 16 16 16 15 14 14 13 12 11 10 8 7 7 7 7 6 6 6 6
15 15 15 15 15 15 16 16 16 14 14 14 15 16 17 18 18 18 19 19 20 20 20 19 18 17 17 16 16 15 15 13 12 11 10 9 9 8 8 8 8 8 7
15 15 15 15 15 15 16 16 16 15 14 14 15 15 16 18 18 18 18 19 19 20 20 20 19 18 17 17 17 16 16 15 14 13 12 12 11 10 10 10 10 10 9
15 14 15 15 14 15 15 15 14 14 14 14 14 14 15 18 19 18 17 18 19 19 19 19 19 19 18 18 18 18 17 17 16 16 15 14 13 13 12 12 12 12 11
14 14 13 14 14 15 14 14 12 11 12 12 12 13 15 16 17 17 18 18 19 19 19 19 19 20 20 19 19 19 19 18 18 17 17 16 16 15 14 14 14 14 14
14 13 13 13 13 13 12 11 10 10 10 11 11 11 13 14 16 17 18 18 19 19 20 20 20 20 21 20 20 20 20 20 19 19 19 18 18 17 17 17 16 16 16
13 12 12 12 12 11 9 9 8 8 9 9 9 10 11 12 14 16 19 19 19 20 20 20 20 21 21 22 21 21 21 21 21 21 20 20 20 20 20 19 19 18 18
11 11 11 11 10 9 8 7 7 8 8 8 9 10 11 12 13 14 16 18 19 20 20 20 20 21 21 22 22 21 22 22 21 22 22 22 22 21 21 21 21 22 22
11 10 10 9 8 8 8 8 8 8 8 8 9 10 11 12 13 14 14 16 18 18 19 19 21 21 22 23 22 22 22 23 23 23 23 23 24 23 23 23 24 24 24
11 10 9 9 8 7 7 7 8 8 8 9 9 10 10 11 11 12 13 15 17 18 18 19 20 21 22 22 22 23 23 24 24 24 24 24 26 26 25 26 26 26 26
10 9 8 8 7 7 8 7 7 8 8 8 9 10 10 10 11 12 13 15 17 18 18 19 19 20 21 21 22 23 23 24 24 25 25 26 26 26 27 27 27 28 29
10 9 9 9 9 8 8 8 8 8 8 8 8 9 10 10 11 11 13 14 16 17 17 18 19 20 20 21 22 23 24 24 24 25 26 26 27 28 27 27 28 29 29
11 10 9 9 10 9 9 9 9 9 9 9 9 10 10 10 11 11 13 14 16 17 18 19 19 20 20 21 22 23 24 24 25 26 26 26 27 28 28 29 30 30 32
12 12 11 11 11 10 10 10 10 10 10 11 11 11 11 10 11 12 12 14 16 18 19 20 20 20 21 21 22 23 23 24 26 27 27 28 28 29 30 30 31 32 32
14 14 14 13 12 12 11 11 11 11 12 12 12 11 11 11 12 12 12 14 15 17 19 21 22 22 21 21 22 23 23 24 25 26 27 27 28 29 30 30 31 33 34
14 14 15 15 14 14 14 14 13 13 13 13 13 14 13 13 13 13 14 13 14 15 17 19 20 21 21 22 22 22 23 25 25 26 27 27 28 29 31 32 33 34 35
16 16 16 16 16 15 15 16 15 15 15 15 15 14 15 14 15 15 14 14 14 15 17 19 20 21 21 22 23 23 24 25 25 26 27 29 30 30 31 32 33 35 36
18 19 18 18 18 18 17 17 17 17 17 17 16 16 15 15 16 16 15 15 15 16 17 18 20 22 22 22 22 23 24 24 25 26 28 30 31 32 32 34 35 36 36
20 20 21 21 20 20 19 19 18 18 18 18 18 18 17 17 18 18 17 18 18 18 19 20 21 22 22 21 22 24 25 25 26 27 29 30 31 32 33 34 35 36 38
21 21 21 21 21 21 21 20 20 19 19 19 20 20 19 19 19 19 19 19 19 20 20 20 20 21 21 22 24 25 26 26 26 28 28 29 30 32 34 35 36 38 40
21 21 21 21 22 22 22 21 21 21 21 21 21 22 22 21 21 21 20 20 20 20 21 21 22 22 22 23 24 25 26 27 29 29 29 31 32 34 37 38 39 40 41
21 20 20 21 22 22 22 22 23 23 23 22 22 22 23 23 23 23 22 22 21 21 21 21 21 22 23 24 25 26 28 29 30 31 32 34 36 37 38 39 39 40 42
21 21 22 22 22 22 22 23 23 23 23 23 22 22 23 23 23 23 23 23 22 23 22 22 23 24 25 26 27 28 29 31 32 34 34 35 37 38 39 39 40 41 42
22 22 22 22 23 23 23 23 23 22 23 23 23 23 24 23 24 24 24 23 23 23 23 24 25 26 27 29 29 29 31 32 33 34 34 35 36 37 38 39 40 42 43